Location: Sternwarte_Laufen
(47.9344°N, 12.9346°E)
Time: 21:11:18
(UTC+01:00)

ISS - Pass Details

Date: 14 February 2018
Orbit: 403 x 407 km, 51.6° (Epoch: 20 February)

Event Time Altitude Azimuth Distance (km) Brightness Sun altitude
Rises 18:25:30 0° 281° (W) 2,320 1.6 -10.0°
Reaches altitude 10° 18:28:55 10° 243° (WSW) 1,455 0.3 -10.6°
Maximum altitude 18:29:49 11° 226° (SW) 1,402 -0.2 -10.7°
Drops below altitude 10° 18:30:43 10° 210° (SSW) 1,452 -0.5 -10.9°
Sets 18:34:08 0° 172° (S) 2,306 0.0 -11.5°
